Zurück zum Katalog

GALILEO 29

10C

AktivNavigationMEO
NORAD 59598·PAYLOAD·🇪🇺 EU

Gestartet Apr 28, 2024 von Cape Canaveral Space Force Station

Loading…

Nächste Überflüge (nächste 24 Stunden)

TLE

AktuellSource: CelesTrak SupGP

Epoche: Sep 13, 2026, 23:59 UTC

1 59598C 24079A   26256.99979167  .00000000  00000+0  00000+0 0  2560
2 59598  55.1769  98.5965 0001501 129.9557 242.0565  1.70474423    15

Verfolge GALILEO 29 in Echtzeit mit AllMySat

Download on the App Store